This is the latest recevied weather packets stored in our database for station/object EA5GTE-12. If no packets are shown the sender has not sent any weather packets the latest 10 day(s).
| Time | Temp. | Humidity | Pressure | Rain* | Wind** | Luminosity | Snow |
|---|---|---|---|---|---|---|---|
| 1787605692 | 20° C | 64% | 939.1 hPa | - | - | - | - |
| 1787604792 | 20.56° C | 63% | 939.2 hPa | - | - | - | - |
| 1787603892 | 20.56° C | 63% | 938.8 hPa | - | - | - | - |
| 1787602991 | 21.11° C | 58% | 938.9 hPa | - | - | - | - |
| 1787602092 | 21.11° C | 55% | 938.6 hPa | - | - | - | - |
| 1787601191 | 21.67° C | 54% | 938.5 hPa | - | - | - | - |
| 1787600291 | 21.67° C | 49% | 937.9 hPa | - | - | - | - |
| 1787599391 | 21.67° C | 43% | 937.9 hPa | - | - | - | - |
| 1787598491 | 22.22° C | 40% | 937.8 hPa | - | - | - | - |
| 1787597591 | 22.78° C | 41% | 937.5 hPa | - | - | - | - |
| 1787596691 | 23.89° C | 40% | 937.4 hPa | - | - | - | - |
| 1787595791 | 23.89° C | 39% | 937 hPa | - | - | - | - |
| 1787594891 | 26.11° C | 40% | 936.8 hPa | - | - | - | - |
| 1787593990 | 26.67° C | 38% | 936.6 hPa | - | - | - | - |
| 1787593090 | 27.78° C | 37% | 936.3 hPa | - | - | - | - |
| 1787592190 | 27.78° C | 38% | 936.5 hPa | - | - | - | - |
| 1787591328 | 27.22° C | 39% | 936.5 hPa | - | - | - | - |
| 1787591290 | 27.22° C | 39% | 936.5 hPa | - | - | - | - |
| 1787590390 | 28.89° C | 32% | 935.8 hPa | - | - | - | - |
| 1787589490 | 27.78° C | 37% | 936 hPa | - | - | - | - |
| 1787587693 | 27.78° C | 40% | 936 hPa | - | - | - | - |
| 1787586793 | 28.33° C | 37% | 936 hPa | - | - | - | - |
| 1787585893 | 30.56° C | 32% | 935.9 hPa | - | - | - | - |
| 1787584993 | 31.11° C | 29% | 935.7 hPa | - | - | - | - |
| 1787584092 | 30° C | 29% | 935.7 hPa | - | - | - | - |
* Rain since midnight (hover to see other rain measurements)
** Current wind speed in m/s (hover to see current wind gust speed)